Wind_Speed
27 26 28 26 22 20 17 14 12 10 9 7 6 4 2 3 3 3 4 4 4 3 3 3 4 6 7 7 9 10 11 11 11 11 13 15 15 15 15 15 14 14 14 13 13 12 11 10 9 9 9 9 10 10 9 8 6 5 5 6 7 8 9 9 9 9 9 10 13 15 15 15 15 17 19 20 21 22 23 23 24 24 25 25 25 25
30 31 33 29 25 23 20 18 16 13 12 11 9 7 5 4 5 4 3 3 2 2 2 2 3 5 6 6 7 9 10 11 11 11 12 12 11 10 10 11 10 11 11 11 11 10 9 8 8 7 6 6 6 6 6 6 5 3 3 5 6 7 8 9 9 9 10 11 13 14 15 16 17 19 20 22 23 24 25 25 26 26 26 27 27 27
33 37 38 32 28 26 24 23 21 17 15 14 12 10 8 7 6 6 7 6 5 4 3 3 3 4 5 6 7 8 9 11 11 11 10 9 8 6 6 5 6 6 7 8 8 8 7 6 6 5 4 4 3 3 3 3 3 3 3 4 6 7 9 10 10 11 11 12 14 15 16 18 19 21 23 24 25 26 27 28 28 28 27 28 28 28
38 42 42 34 29 29 28 27 24 21 19 18 16 14 12 11 9 8 9 9 8 6 6 5 4 5 6 6 7 8 9 10 10 10 9 8 7 6 4 3 1 2 3 4 5 5 5 5 5 4 4 3 3 3 4 4 4 4 5 6 7 8 9 10 11 12 13 14 16 17 19 20 22 23 24 25 26 27 29 30 30 30 30 29 29 29
42 46 45 36 32 32 31 30 28 27 24 22 20 18 17 15 11 11 11 10 9 9 8 7 7 7 7 7 8 8 8 9 10 10 9 8 7 7 6 4 3 2 2 2 3 3 4 4 3 3 3 3 3 3 4 5 5 6 7 7 8 9 10 11 12 13 15 16 18 20 21 22 24 25 26 27 28 29 30 31 32 32 32 31 31 31
46 49 47 39 35 34 33 33 33 32 29 27 25 23 21 18 14 14 14 12 11 10 9 9 10 10 9 9 9 9 9 9 9 10 9 9 8 8 8 7 6 6 5 4 3 3 4 3 2 2 2 3 3 4 5 5 6 7 8 9 9 10 11 12 13 15 17 18 20 22 23 24 25 26 28 29 29 30 31 31 32 33 33 33 32 32
48 52 49 42 38 36 35 36 36 35 33 32 31 28 24 21 18 18 17 16 14 11 11 13 12 12 11 11 10 10 10 9 9 9 9 10 9 9 9 9 9 9 8 6 5 5 5 4 3 3 4 4 5 5 6 6 7 8 9 10 11 12 13 14 15 17 19 20 22 24 25 26 27 27 28 29 30 30 30 31 32 33 34 34 34 33
49 53 51 44 41 39 38 38 40 40 39 38 37 31 27 24 22 21 19 18 16 13 14 16 14 14 13 12 12 11 11 10 9 9 9 9 9 9 10 10 11 10 9 8 7 7 7 6 5 6 6 6 7 7 8 8 9 10 11 12 13 14 16 17 18 20 21 23 24 26 27 27 28 28 29 29 30 30 31 31 32 33 33 34 34 33
52 55 54 48 44 42 41 42 44 44 43 43 40 33 30 27 25 23 22 21 18 16 18 19 17 16 15 14 14 13 13 12 11 9 9 9 9 9 10 11 11 11 10 9 9 9 8 8 8 8 9 9 9 10 10 11 12 13 14 15 16 18 19 20 22 23 24 25 26 27 28 28 29 29 30 31 31 32 32 32 32 33 33 33 33 32
56 57 58 52 46 44 46 47 47 46 46 46 41 35 33 30 28 26 24 23 21 19 21 24 21 20 17 16 17 15 15 14 12 11 10 10 10 10 11 11 11 10 10 11 11 10 10 10 10 11 12 12 12 13 13 14 16 17 18 19 20 21 22 23 25 25 26 27 27 28 29 29 30 30 31 32 32 33 33 33 33 33 33 33 32 32
59 60 60 55 48 47 48 48 48 47 48 47 42 36 34 32 30 29 27 25 23 21 25 27 24 22 21 21 21 17 15 16 15 13 13 13 12 12 11 11 11 11 11 12 12 12 12 12 13 14 14 15 15 16 17 18 19 20 21 22 23 24 25 26 27 27 28 28 29 30 30 30 30 31 32 33 33 34 34 34 34 34 34 34 33 33
62 62 62 58 53 51 50 49 49 48 47 47 43 37 35 34 32 30 29 27 24 25 31 30 25 25 25 25 23 18 18 19 18 16 15 14 14 13 13 13 12 12 13 13 13 14 15 16 16 17 17 18 18 19 20 21 22 23 24 25 25 26 27 27 28 29 30 30 31 31 31 30 31 32 33 34 35 36 36 36 36 35 35 35 35 35
65 64 64 62 58 55 52 52 50 48 47 48 45 40 38 35 33 32 30 29 27 31 36 32 27 29 29 26 24 22 22 22 20 20 18 17 16 16 16 15 15 15 15 15 16 16 17 19 20 20 20 21 21 22 23 24 25 26 27 28 28 29 29 29 30 31 31 32 32 32 32 31 31 32 34 35 36 37 37 37 36 36 36 36 36 37
69 68 68 65 62 58 55 54 52 49 48 49 47 44 42 38 36 34 33 33 32 35 40 35 30 33 31 27 26 25 23 23 24 24 22 20 20 19 19 19 19 19 19 19 19 20 20 21 23 24 24 24 24 25 26 26 27 28 29 30 30 31 31 31 31 32 33 33 33 33 33 34 34 34 35 36 37 37 37 37 36 37 37 37 37 38
73 72 70 67 65 61 58 56 55 53 52 52 51 49 46 42 40 38 37 38 36 39 43 36 32 35 34 29 28 25 25 28 29 28 26 25 24 23 23 23 22 22 22 22 23 24 24 24 25 27 27 27 27 28 28 29 30 30 31 31 32 32 32 32 32 33 34 34 35 35 36 37 37 37 37 37 37 37 37 37 37 37 38 39 40 41
76 73 72 71 70 66 64 61 60 59 57 55 54 52 47 42 42 43 42 42 40 41 43 37 34 38 36 31 30 28 30 31 31 30 30 29 27 27 27 26 26 25 25 25 26 27 28 28 29 29 29 29 29 30 31 31 32 32 32 32 32 33 33 33 34 35 35 36 37 38 38 39 39 39 39 38 38 38 38 38 39 39 40 41 42 43
79 76 75 76 74 72 71 68 66 65 61 59 57 52 48 46 47 47 44 44 43 42 42 39 38 40 37 34 33 33 33 33 32 32 32 31 31 31 30 29 29 28 28 28 29 30 31 31 32 31 31 31 31 32 32 33 33 33 33 34 34 34 34 35 36 36 37 38 39 40 40 41 41 41 40 39 39 39 40 41 42 42 43 44 45 46
83 81 80 80 78 76 75 73 71 69 66 64 60 54 53 53 52 49 46 45 45 42 42 41 41 42 40 37 36 36 36 35 34 34 34 34 34 33 32 32 31 31 31 31 31 32 33 33 33 33 32 32 33 33 34 34 35 35 35 35 36 36 36 37 38 38 39 40 41 42 42 42 42 42 42 41 41 42 42 43 45 45 46 47 48 48
86 84 83 83 82 80 80 78 76 72 70 66 62 59 59 58 54 51 48 46 45 44 43 44 43 43 43 42 41 40 39 38 36 36 36 36 36 35 35 34 34 34 34 34 33 33 34 35 35 35 35 35 35 36 36 36 36 36 37 37 38 38 38 39 40 40 41 42 42 43 43 43 43 43 43 43 44 45 45 47 47 48 49 48 47 48
89 87 86 86 86 85 84 83 78 73 71 68 65 64 63 60 56 54 50 47 47 46 46 46 45 44 45 48 47 43 41 40 37 37 38 38 37 37 37 37 36 36 36 36 35 35 35 36 37 38 38 38 38 38 39 39 39 39 39 39 39 40 40 40 41 41 42 43 44 44 44 44 44 44 44 45 46 47 47 49 50 50 50 47 45 48
92 90 88 88 89 88 86 83 78 74 73 71 69 67 66 63 59 56 53 49 47 47 46 47 46 45 47 51 50 47 44 42 39 38 40 41 40 40 40 39 38 38 38 38 37 37 38 39 39 40 40 40 41 41 42 42 42 41 41 41 41 41 41 42 42 42 43 44 45 45 45 44 45 46 46 46 48 49 50 51 51 51 50 47 46 48
93 91 90 91 91 89 85 81 78 78 78 76 74 72 70 66 62 60 57 52 49 48 47 47 47 47 50 52 52 51 48 45 42 41 43 43 44 43 42 41 41 40 40 40 40 39 40 41 42 42 42 42 43 44 44 44 44 44 43 42 42 42 42 42 43 43 44 45 45 46 45 45 46 47 48 50 51 52 52 51 51 51 50 48 49 51
96 94 93 93 92 88 85 83 83 83 82 82 80 77 74 71 68 64 59 54 52 51 50 50 48 49 52 54 55 54 52 49 46 45 46 46 47 46 44 43 43 43 43 43 42 42 42 43 44 44 44 44 45 45 46 46 46 45 45 44 43 43 43 43 44 44 45 45 46 47 47 47 48 49 51 53 52 51 51 51 53 54 51 49 52 56
99 97 95 93 92 89 88 88 88 87 87 85 81 78 75 73 70 66 61 58 56 55 53 52 49 48 53 56 56 56 55 52 50 49 49 49 49 49 47 46 46 46 45 45 45 44 45 45 46 46 46 46 47 47 48 48 47 47 46 46 44 44 44 44 45 46 46 47 47 47 48 48 50 51 53 53 53 54 53 53 55 55 51 51 57 60
102 100 97 95 93 92 93 92 90 88 87 84 80 77 75 72 71 69 65 62 60 58 55 53 49 48 53 57 58 57 56 55 53 52 52 51 51 51 50 49 50 49 47 47 47 47 48 48 48 48 48 48 48 49 49 49 49 48 48 47 46 45 45 45 46 48 48 48 48 49 49 49 50 50 51 52 54 55 53 53 55 54 52 56 60 57
103 101 99 97 95 93 93 91 88 85 83 82 79 77 75 73 73 71 69 66 62 59 57 54 49 49 54 58 58 58 58 57 56 55 55 55 53 53 53 53 52 50 49 49 49 49 50 50 50 50 50 51 51 51 51 51 50 50 50 49 48 47 47 47 48 50 50 50 50 50 50 50 51 51 50 51 53 53 52 53 55 54 55 59 59 53
102 102 100 98 95 93 91 90 88 86 84 83 81 80 78 77 75 75 74 69 63 61 59 55 52 53 56 58 59 59 60 60 58 58 58 57 55 55 55 54 52 51 50 51 51 51 51 51 51 51 51 52 52 53 53 52 52 52 52 51 50 50 49 49 50 51 52 52 52 52 51 51 51 49 48 50 51 51 52 54 54 54 56 56 54 51
99 101 101 99 96 94 92 92 92 91 89 87 84 83 82 80 79 78 77 70 65 65 61 56 56 57 58 60 61 61 62 62 61 61 59 58 56 56 55 53 52 51 51 52 53 53 52 52 52 52 52 53 54 54 54 55 55 55 54 54 53 52 51 51 52 53 54 54 53 52 51 51 49 45 44 47 50 52 54 55 54 55 55 54 53 52
96 99 101 100 98 96 94 95 95 95 93 91 88 86 85 84 82 80 77 72 69 68 63 59 62 61 59 61 63 63 64 64 64 62 60 58 57 56 54 53 53 52 52 54 55 55 54 53 53 54 54 55 55 56 56 57 58 57 57 56 55 54 53 53 54 55 55 55 53 51 50 48 46 42 39 40 45 52 55 54 53 54 55 55 55 54
92 97 100 101 100 98 97 98 98 97 96 94 92 89 88 87 84 82 79 76 74 72 67 65 66 63 61 62 63 64 65 65 64 62 60 58 58 57 55 54 54 54 54 55 56 56 56 55 55 56 56 57 58 58 59 59 60 59 59 58 57 57 56 56 56 57 56 56 53 51 50 47 44 39 33 31 37 48 53 54 55 57 58 57 56 56
89 94 98 100 100 100 99 99 100 99 97 96 94 92 90 88 86 83 81 79 77 74 70 69 68 64 62 63 63 65 66 65 64 62 60 59 59 58 56 56 56 56 56 57 57 57 57 56 55 56 57 58 60 60 61 62 62 62 62 61 60 60 59 58 58 58 57 56 54 52 51 48 44 39 32 28 31 40 47 53 58 60 59 57 55 56
86 91 96 98 99 100 100 100 100 100 99 98 96 94 92 90 87 84 81 79 77 74 72 70 67 63 63 64 65 65 66 65 64 63 61 61 60 59 58 57 57 57 58 58 58 58 57 56 56 56 58 60 61 62 63 64 65 66 66 65 64 63 62 61 60 59 58 56 54 52 51 49 46 41 35 30 31 39 48 56 61 62 60 58 57 59
84 87 93 97 98 98 100 101 101 102 102 100 97 94 92 90 87 84 82 79 77 75 74 71 66 63 65 67 67 67 67 66 65 64 62 62 61 60 59 58 58 58 59 59 60 58 57 56 56 56 58 61 63 63 64 65 67 68 69 69 68 67 65 64 62 60 58 56 53 52 50 49 48 45 41 38 39 45 51 55 59 61 61 60 61 63
83 85 89 94 95 96 99 102 103 104 104 99 94 92 91 90 88 86 83 80 78 77 75 71 66 65 66 68 67 68 68 67 65 64 63 62 61 60 59 59 59 60 61 62 62 60 58 57 57 57 60 63 64 64 65 67 69 69 70 70 70 69 68 66 64 61 58 56 54 52 50 50 51 50 49 47 47 49 51 53 56 57 58 60 61 63
82 84 86 90 92 94 98 102 104 104 101 96 92 91 92 92 91 89 86 83 81 79 75 71 68 66 66 68 69 69 69 68 66 64 62 61 61 60 60 61 62 62 63 64 63 60 59 58 59 60 63 65 65 65 67 69 70 70 70 70 70 70 68 67 65 62 59 57 55 54 53 53 54 54 55 54 54 54 54 54 55 57 57 58 58 59
81 82 83 86 89 92 95 100 103 102 98 95 93 93 94 93 92 91 88 85 82 79 76 72 70 68 67 69 70 72 71 69 67 65 63 62 62 62 63 64 64 64 66 65 63 61 61 62 62 63 64 65 66 68 70 71 71 70 70 70 69 68 67 65 64 62 60 59 58 56 56 57 57 58 59 60 60 59 57 56 56 57 58 57 55 55
77 80 80 82 86 90 93 97 101 100 97 95 94 94 94 93 92 91 89 86 83 81 78 75 72 70 69 70 72 74 73 71 68 66 65 64 63 64 66 67 67 67 68 66 64 64 65 65 65 65 66 67 69 71 72 71 71 70 70 69 68 67 65 64 63 62 61 61 61 60 59 60 60 61 62 63 63 61 59 58 57 57 57 55 51 49
73 77 78 80 83 87 91 95 98 98 96 95 94 93 93 93 91 91 90 87 85 82 80 77 75 72 70 71 74 74 73 72 70 68 67 66 66 68 69 70 70 70 69 68 67 67 68 68 67 67 68 69 70 72 73 71 71 70 69 68 67 65 64 63 63 62 63 64 64 64 63 63 63 64 65 65 64 63 61 59 58 56 53 49 47 48
71 74 75 78 80 84 88 92 96 97 95 95 94 93 93 93 92 92 91 89 86 83 82 80 77 74 73 73 73 74 73 72 70 69 69 68 69 71 72 72 72 72 71 70 69 69 69 70 70 69 69 70 72 73 72 71 70 69 68 67 66 65 65 64 63 64 65 67 68 67 66 66 66 67 67 67 66 64 62 60 58 55 52 51 53 55
67 70 72 75 77 81 85 89 93 95 94 94 94 93 93 93 93 93 91 89 85 84 83 82 79 77 75 74 73 74 73 72 70 70 70 70 71 72 72 73 73 73 72 71 71 71 71 71 71 71 71 72 72 72 72 71 70 68 67 66 66 65 65 65 65 67 68 70 71 71 69 69 69 68 68 68 66 64 63 60 57 54 52 53 57 59
64 66 69 71 74 78 82 85 89 91 92 92 93 93 93 94 93 92 90 87 85 84 84 82 80 78 77 75 74 74 73 72 71 70 70 71 72 73 72 73 73 73 73 73 72 71 71 71 72 72 72 72 72 72 71 70 69 68 67 66 66 66 66 67 68 70 71 73 73 73 72 72 71 70 69 68 67 67 64 59 55 52 51 52 56 61
63 65 66 68 71 74 78 82 85 87 89 91 92 93 93 93 91 90 89 87 86 85 84 82 80 79 78 77 76 75 74 73 72 72 72 72 72 72 72 73 73 74 74 73 72 72 72 72 72 72 71 72 72 72 71 70 69 68 67 67 67 67 69 70 71 72 73 74 74 75 74 73 71 70 70 70 69 66 61 57 54 53 53 55 57 61
62 65 66 66 68 71 75 78 81 83 86 88 90 92 92 91 90 89 89 88 86 85 84 82 80 79 78 78 77 75 74 74 73 73 73 72 72 72 73 73 73 74 74 74 73 73 72 72 72 71 71 71 71 71 70 70 69 68 68 68 69 70 71 71 72 73 74 75 76 75 73 72 71 72 72 70 66 62 60 60 60 58 57 58 59 60
61 65 66 64 65 68 72 74 77 79 82 86 88 90 90 90 89 89 88 88 87 85 83 82 81 79 79 78 76 76 75 76 76 75 74 73 73 73 73 74 74 75 75 75 75 73 72 70 69 66 67 70 71 70 70 71 71 71 70 71 71 71 72 73 74 74 75 75 74 73 71 72 72 72 70 66 63 63 64 65 64 63 62 61 61 60
58 63 65 62 62 64 67 69 71 75 78 82 86 88 89 89 89 88 87 87 87 85 83 82 80 79 78 76 75 75 76 76 76 75 74 74 74 74 74 75 75 76 76 75 75 73 71 70 67 63 63 66 69 69 70 71 72 73 72 71 72 72 73 74 74 74 73 73 72 72 72 73 73 72 69 67 66 66 67 66 66 66 66 65 63 60
58 62 64 62 61 61 62 63 63 66 72 78 82 85 87 87 88 87 87 87 86 84 83 82 80 79 78 76 74 74 75 76 75 75 74 75 75 75 75 75 75 75 75 74 74 72 70 69 68 67 67 68 70 72 73 73 73 73 72 72 73 74 73 73 72 72 71 71 72 73 74 74 73 72 70 68 68 68 68 67 67 67 65 64 63 61
57 61 64 62 58 57 59 61 58 55 59 68 76 81 84 85 86 86 86 85 85 84 83 82 80 78 77 76 75 74 75 75 75 74 74 75 76 75 75 74 74 74 74 73 73 71 70 69 70 71 71 72 73 75 74 73 73 73 72 73 74 74 73 72 72 72 72 73 74 74 73 72 71 71 70 68 68 68 67 67 67 66 65 65 65 64
57 60 63 61 56 53 56 61 60 53 50 54 62 71 78 82 84 84 84 84 84 83 82 81 80 78 77 76 75 75 75 74 74 74 74 74 74 74 73 73 73 73 73 73 73 72 72 72 73 72 72 74 75 76 75 74 74 73 73 73 75 75 74 74 74 74 75 76 76 75 73 71 71 70 69 68 68 68 68 67 67 67 67 68 68 67
57 60 61 60 56 52 50 53 57 57 53 50 50 56 64 73 79 80 81 82 82 81 81 80 78 77 77 76 76 76 75 75 74 75 74 74 73 73 73 73 73 73 74 74 74 74 74 74 74 74 74 75 76 76 76 75 75 74 74 74 75 75 75 75 76 76 77 78 78 76 74 73 71 70 69 70 70 69 68 68 68 68 69 70 70 69
59 61 61 58 54 50 47 46 48 52 54 52 49 48 52 59 67 72 76 79 79 78 78 78 77 77 76 75 75 76 75 75 75 75 74 74 73 73 73 73 73 74 74 74 74 75 75 75 76 76 76 77 77 77 77 76 76 75 75 74 74 75 76 77 78 79 79 79 78 76 74 73 71 70 70 70 69 69 69 70 70 70 69 69 69 70
60 62 61 59 55 50 49 47 44 44 47 49 48 47 46 47 53 60 66 71 74 75 76 75 75 75 74 74 75 76 76 76 75 75 75 74 74 74 73 74 74 74 74 75 75 76 77 78 78 78 78 78 78 77 77 76 75 75 74 74 74 76 77 78 79 80 80 79 78 77 75 73 72 71 70 69 69 69 71 72 73 72 71 71 70 70
Wind_Direction
251 255 256 256 257 257 257 260 258 258 265 271 276 261 188 155 134 105 91 92 94 95 94 94 103 109 113 120 126 127 127 128 131 131 128 123 119 113 109 106 104 100 97 95 90 87 83 78 76 75 73 72 75 79 85 93 93 76 48 31 30 32 33 31 24 15 6 355 349 347 348 348 348 350 351 351 350 348 347 345 344 343 342 341 340 340
249 252 252 250 252 254 255 258 255 250 255 258 261 262 244 206 179 167 158 144 133 134 138 139 138 138 134 133 138 141 143 143 142 140 138 133 126 120 116 111 107 102 98 96 91 86 81 78 76 75 72 68 68 74 80 86 84 66 34 18 12 9 10 10 6 2 357 348 344 344 347 347 346 346 347 346 345 343 342 341 340 339 338 336 335 335
246 249 250 246 248 253 254 256 253 249 250 252 252 253 254 242 215 195 188 185 184 185 184 176 166 165 163 160 157 157 157 158 157 154 153 151 146 143 138 125 108 96 91 90 86 80 73 68 67 68 67 61 49 43 48 54 50 30 9 1 358 356 356 355 353 352 351 348 347 347 348 348 347 346 345 344 343 342 341 340 339 337 335 333 332 331
243 247 248 245 245 249 252 254 254 251 249 249 247 246 247 246 239 225 209 198 195 195 201 203 196 185 182 182 178 174 172 170 169 169 169 171 173 181 188 182 132 81 72 74 70 66 58 49 48 53 54 47 30 12 7 10 9 1 353 350 350 351 351 351 349 349 349 350 348 348 347 346 344 343 342 342 342 341 341 340 339 337 335 333 331 329
242 245 246 243 242 246 250 254 255 253 250 248 246 243 242 241 240 242 233 216 204 202 205 210 213 208 200 197 193 188 186 185 183 183 184 188 196 206 219 233 247 274 312 2 25 27 26 21 25 35 39 33 18 3 352 353 354 349 344 345 344 345 347 347 347 347 346 346 344 342 341 341 341 340 339 339 341 342 342 341 340 339 337 334 331 329
242 245 245 242 240 242 247 251 253 253 251 249 246 240 239 237 234 241 244 237 224 213 211 215 217 217 213 209 204 200 198 200 201 202 205 207 211 220 232 244 254 267 286 303 321 333 334 337 347 351 355 353 348 339 335 339 341 340 338 338 337 338 340 341 341 341 340 339 338 337 336 337 338 338 338 338 339 341 341 342 342 341 339 337 334 331
241 244 245 241 239 240 242 247 252 253 251 250 246 239 236 236 233 235 240 243 242 231 225 226 223 221 221 217 213 209 207 207 211 216 222 225 222 223 233 243 250 260 272 283 293 300 301 301 305 307 310 317 321 321 323 325 328 330 329 328 329 330 332 334 335 335 335 335 334 333 333 334 335 335 335 336 337 338 339 340 341 341 341 339 337 334
241 245 245 242 239 239 239 243 248 250 249 248 245 239 235 234 233 233 235 240 244 242 239 239 233 228 228 225 222 219 216 210 209 214 221 228 229 224 228 237 244 253 264 272 279 283 285 288 293 296 297 299 304 310 312 316 318 319 319 320 321 323 326 328 329 329 330 330 331 331 331 332 332 331 332 333 334 335 336 337 338 339 339 339 338 335
240 243 244 240 238 237 237 238 241 245 247 247 245 240 236 235 234 234 235 237 238 238 243 245 241 237 234 232 230 229 227 220 211 211 212 215 222 221 224 233 242 252 263 270 272 273 276 280 286 290 292 293 297 301 306 310 312 313 314 316 318 320 322 323 324 325 326 327 328 328 328 329 328 329 330 331 331 332 333 334 336 336 336 335 334 332
239 241 243 240 237 236 236 236 238 241 245 247 246 242 239 237 236 236 236 237 236 236 243 245 242 240 238 236 235 232 234 234 224 217 216 216 218 218 221 229 239 251 260 265 268 272 276 278 281 284 288 291 295 298 303 307 309 310 312 314 316 318 319 320 321 322 323 324 324 324 325 326 326 327 328 328 328 329 331 331 332 332 332 331 330 328
239 241 244 243 239 236 237 238 238 239 243 246 246 244 242 240 239 239 239 239 239 238 242 243 242 241 239 238 240 238 238 241 236 226 224 226 228 227 226 228 233 241 249 256 264 272 276 277 278 281 285 289 293 296 299 302 305 308 309 311 313 314 315 317 319 319 320 320 320 321 323 325 325 325 325 325 325 326 327 328 328 328 328 327 326 324
239 242 244 244 241 238 238 239 239 239 242 246 247 246 245 244 242 243 243 243 242 241 241 241 241 242 239 239 244 244 240 242 242 238 233 233 236 238 240 240 240 241 244 249 257 265 271 275 276 278 283 287 292 294 296 299 302 304 306 307 309 311 313 315 316 316 316 317 318 319 321 323 323 323 323 322 322 323 324 325 326 326 326 325 324 323
239 241 244 244 243 240 239 240 241 241 242 246 247 245 244 243 243 244 246 246 243 242 243 239 237 241 241 241 244 243 244 248 249 245 240 236 237 240 243 245 247 248 249 253 255 259 265 271 275 278 281 285 289 292 295 297 299 301 302 304 306 309 311 313 314 313 314 315 317 318 319 320 321 321 320 320 320 321 322 324 324 325 325 325 324 324
236 239 242 243 243 242 241 242 242 242 242 244 245 244 242 240 241 241 242 243 240 242 245 240 236 241 242 241 243 244 248 251 250 248 246 242 240 241 243 246 248 251 253 256 258 259 261 266 273 277 280 283 286 290 293 295 296 298 300 302 305 307 309 311 311 311 313 314 315 316 318 319 319 319 318 318 318 319 321 322 324 325 325 325 325 324
234 236 239 243 244 243 242 242 242 241 239 239 240 240 238 236 236 235 235 237 237 240 246 245 241 244 245 242 243 245 247 248 249 250 250 248 247 247 248 249 251 252 255 258 262 264 265 267 270 274 278 282 285 288 290 293 295 297 299 301 303 305 307 309 310 311 312 312 314 315 316 317 318 318 318 318 318 319 320 321 322 324 324 324 324 324
234 236 238 241 241 241 240 239 239 240 239 239 240 240 240 237 236 234 233 235 236 239 247 249 247 248 248 245 244 243 244 247 250 252 252 252 252 252 252 254 255 256 259 261 264 267 269 270 271 273 277 281 285 288 290 292 294 296 298 300 302 303 305 307 309 310 310 312 313 314 315 316 316 316 317 317 317 318 319 320 320 321 322 322 322 322
233 234 237 239 240 241 240 238 238 238 238 238 239 240 240 238 237 235 232 233 235 237 243 246 248 251 251 248 247 246 246 248 250 252 254 255 255 255 255 257 258 260 262 263 266 268 270 272 273 276 279 283 286 289 291 292 294 295 297 299 300 302 304 306 307 308 309 311 312 313 314 314 315 315 316 316 317 318 319 319 319 319 319 320 319 319
232 232 234 236 238 240 240 239 238 238 238 238 238 237 237 237 237 235 233 233 234 235 238 243 246 252 254 251 249 249 249 249 250 253 256 257 258 258 259 260 261 262 263 264 266 269 272 275 277 280 283 285 287 289 290 292 294 296 297 299 300 301 303 305 306 307 309 310 311 311 312 313 314 315 315 316 316 317 318 317 317 317 318 318 319 319
231 231 232 234 235 237 239 239 238 238 239 240 239 237 238 239 238 238 234 233 233 233 234 238 242 247 252 252 249 249 250 251 252 254 257 259 261 262 262 263 264 264 265 266 268 271 274 277 280 283 284 286 287 289 290 292 293 295 297 298 299 301 302 304 305 306 308 309 310 310 310 312 313 314 315 316 316 316 316 316 316 316 317 319 322 323
230 230 232 234 235 236 237 238 238 238 239 241 241 240 241 242 241 241 238 234 233 233 232 233 237 242 247 251 251 250 250 252 253 255 257 259 261 263 263 264 265 266 267 268 270 273 275 278 280 283 284 286 287 289 290 292 293 294 295 297 298 300 302 303 304 306 308 309 309 308 309 311 313 314 314 315 315 315 314 314 315 316 317 319 323 326
229 229 230 232 234 235 237 239 240 240 240 241 242 242 243 243 242 242 242 238 236 235 233 233 236 239 243 249 253 253 252 252 253 254 256 258 259 260 262 263 265 267 269 270 272 274 276 277 279 281 283 285 287 289 290 291 293 294 295 297 298 299 301 302 304 305 306 307 307 307 309 310 312 313 312 313 313 312 312 312 315 317 318 319 321 325
228 229 229 231 233 234 236 238 239 240 240 239 240 240 241 241 240 239 239 238 236 235 234 233 234 235 240 246 250 253 253 252 252 252 254 256 257 258 260 262 265 267 269 270 272 273 275 276 277 279 281 284 286 287 289 290 292 293 294 295 297 298 299 301 302 304 304 304 305 306 308 309 311 311 310 311 311 311 312 312 313 316 319 319 319 322
227 227 228 230 232 233 234 235 237 238 238 238 238 238 239 239 239 238 238 237 235 234 233 233 233 232 236 242 247 250 251 252 252 251 252 254 257 259 260 262 264 266 267 269 270 272 273 275 276 278 280 282 284 285 287 288 289 291 292 293 295 296 297 299 300 301 301 302 304 306 307 308 309 310 310 310 310 312 313 312 313 315 317 318 317 318
226 226 227 228 230 231 232 233 234 236 237 237 237 238 241 243 243 243 240 237 236 237 236 235 234 233 235 240 244 248 250 251 252 252 252 254 256 259 260 261 262 264 266 268 269 271 272 274 275 277 279 281 282 283 284 286 287 288 289 291 293 294 295 296 298 298 299 301 304 306 306 307 309 311 310 309 311 314 314 314 315 314 314 313 313 314
226 225 225 226 228 229 231 232 234 235 237 238 239 240 242 244 246 245 244 241 242 243 242 240 239 235 235 238 242 245 249 250 251 252 252 253 254 257 259 260 261 263 265 266 268 270 272 273 275 277 278 279 280 282 283 284 285 286 288 290 291 293 293 295 297 298 299 300 302 303 304 306 308 309 308 308 312 314 313 313 313 311 308 307 309 312
225 225 225 225 226 228 231 233 234 236 238 240 240 241 242 243 245 246 246 245 246 246 245 245 242 237 236 238 241 243 247 249 250 250 252 253 254 256 257 259 261 263 265 266 268 269 270 272 274 276 278 279 280 281 283 284 285 286 288 289 291 292 294 295 296 297 298 299 300 301 303 305 306 308 309 312 315 314 311 310 309 305 303 304 308 313
225 225 224 225 225 227 229 231 232 233 235 237 238 239 240 241 242 244 244 244 245 245 245 244 240 235 235 238 240 242 244 247 248 249 250 251 253 255 256 258 261 263 264 266 267 268 270 272 274 276 277 279 280 281 283 284 285 286 288 289 290 291 293 294 295 295 296 297 298 301 303 304 306 310 315 317 317 314 312 311 306 302 301 303 308 312
225 225 224 224 224 225 226 228 230 230 231 232 234 235 236 237 238 240 242 242 241 241 241 239 236 234 234 236 238 240 242 245 246 247 248 250 252 253 255 258 260 262 264 265 267 269 270 272 274 276 277 279 280 281 282 283 284 286 287 288 289 290 291 293 293 293 295 296 298 301 303 304 308 313 320 322 318 314 311 309 305 303 303 304 306 306
225 225 224 223 223 223 224 226 228 230 230 230 231 232 234 234 235 237 239 239 238 239 238 235 235 235 234 235 237 239 241 243 245 247 248 250 252 253 255 257 259 261 263 265 267 269 271 273 274 276 277 278 279 280 281 282 283 285 286 287 288 289 290 291 291 292 294 295 298 301 303 305 309 315 325 328 318 308 305 304 304 303 300 299 300 301
225 225 225 224 223 222 223 225 227 228 229 230 230 231 233 234 234 236 237 238 238 239 237 235 236 237 236 236 238 240 242 244 247 249 250 251 253 254 255 257 259 261 263 265 267 268 270 272 274 275 277 278 279 280 280 281 283 284 285 286 287 288 289 290 291 293 294 296 300 302 303 305 309 314 325 328 312 301 299 298 297 294 293 294 297 299
225 225 225 224 223 222 223 225 226 228 229 230 230 230 232 233 234 235 236 238 239 239 239 238 240 241 241 240 241 242 244 246 248 250 251 252 253 255 256 257 259 261 263 264 266 267 269 271 273 274 276 278 279 280 281 282 283 284 285 285 286 288 289 291 292 294 296 298 301 303 303 304 307 310 316 317 307 297 291 286 284 284 288 292 294 294
226 225 224 224 223 223 223 225 226 228 228 229 230 231 232 233 234 234 235 237 239 240 240 240 242 243 243 242 243 243 245 247 249 250 251 252 254 256 257 258 259 260 262 263 265 266 268 270 272 274 276 277 278 279 281 283 285 285 286 287 288 289 290 292 294 295 296 298 300 301 301 301 303 305 305 302 294 283 274 271 274 279 285 289 290 291
228 226 224 224 223 222 223 224 226 227 228 229 230 231 233 234 235 235 235 236 237 239 239 240 241 241 241 242 244 246 248 249 250 251 252 253 255 256 257 259 260 261 262 263 264 266 267 269 271 273 275 276 277 279 281 283 284 285 287 289 290 291 292 293 294 295 296 297 298 297 298 299 300 300 298 293 286 279 274 273 277 282 286 289 289 290
229 227 225 224 222 222 223 225 225 227 228 229 229 231 233 234 235 235 235 235 236 238 239 240 240 239 241 243 246 248 249 250 251 253 254 256 257 259 260 261 262 262 263 263 264 266 267 269 271 272 273 274 276 278 280 281 282 284 286 287 289 290 291 292 293 294 295 295 295 294 295 296 297 296 295 293 290 288 286 285 286 287 288 288 288 288
230 228 226 223 222 222 223 225 225 227 229 229 229 230 233 234 234 235 235 234 235 236 238 239 239 239 241 244 246 248 250 252 253 255 256 257 259 260 261 261 262 262 262 263 265 267 268 269 270 271 271 273 276 277 278 279 280 282 284 286 287 288 290 291 292 293 293 293 293 293 294 295 296 296 296 295 294 292 291 290 289 289 288 288 286 285
231 229 227 224 222 222 223 225 226 226 227 228 228 229 232 233 234 235 236 235 235 236 237 237 238 239 240 243 246 248 250 252 253 255 256 257 259 260 260 261 261 262 263 264 266 268 268 269 269 270 272 274 275 276 277 278 280 282 283 284 286 287 288 289 290 291 292 292 292 293 294 295 296 296 296 295 294 293 292 292 292 290 288 287 284 281
232 230 228 225 223 222 223 225 226 226 226 227 227 228 230 232 234 235 236 236 236 236 236 236 237 238 239 242 244 247 249 251 252 254 255 257 258 259 259 260 261 262 263 265 267 268 268 269 270 272 273 274 275 276 277 278 279 281 282 284 285 286 286 287 288 289 290 291 291 293 294 295 296 295 295 294 294 294 294 293 292 289 289 289 286 280
233 232 229 227 224 223 223 224 225 225 225 226 227 228 230 231 233 234 235 236 236 236 236 235 236 236 238 240 243 245 248 250 252 253 255 256 257 258 259 260 261 262 264 265 267 268 269 270 271 272 273 274 275 275 276 278 279 280 282 283 284 284 284 285 287 288 289 290 291 292 294 295 295 294 293 293 294 295 295 294 292 289 287 283 278 271
231 231 230 228 225 224 223 223 224 225 224 225 226 227 229 231 232 233 234 235 235 235 236 235 235 235 236 238 241 244 246 249 250 252 254 255 256 257 258 260 261 263 264 265 266 267 269 270 271 271 272 273 273 274 276 277 279 280 281 282 282 283 284 285 287 288 289 290 291 292 293 294 294 293 293 294 295 295 294 293 291 288 281 272 266 264
229 230 230 229 226 224 223 223 224 225 224 224 226 227 228 230 231 232 234 235 235 235 236 236 236 235 236 237 239 242 244 246 248 250 252 254 255 256 258 260 261 263 264 265 266 267 268 269 270 270 271 271 272 274 275 277 278 279 280 280 281 282 283 285 286 287 288 290 291 292 293 293 294 294 295 295 295 295 294 292 290 286 277 267 264 264
226 228 229 229 227 225 224 223 224 225 225 224 225 226 228 229 231 232 233 234 235 235 236 237 237 236 237 237 238 241 242 244 246 248 250 252 253 255 257 258 260 262 263 263 264 265 266 267 268 269 270 271 272 274 275 276 277 278 278 279 280 281 283 284 285 287 288 290 291 292 293 294 295 295 295 295 295 294 293 291 289 286 277 269 266 266
223 224 225 227 228 226 224 223 223 224 225 225 225 226 228 229 230 232 233 234 234 235 236 237 237 237 238 238 238 240 241 243 244 246 247 249 251 254 255 257 258 260 261 262 263 264 264 265 266 268 269 271 273 274 275 275 276 276 277 278 279 280 282 284 285 287 288 289 291 292 294 296 296 296 296 296 295 294 291 290 290 288 282 276 274 271
222 220 220 223 227 227 225 223 222 224 225 225 225 227 228 229 230 231 233 233 234 235 236 236 237 238 238 239 240 240 241 242 244 245 246 248 250 252 253 255 256 258 259 259 260 261 263 264 266 268 269 271 272 273 273 274 274 275 276 277 279 281 283 285 286 288 289 290 292 294 295 297 297 297 296 296 295 293 291 290 291 289 285 282 280 278
221 219 217 219 223 227 226 224 223 223 225 225 226 227 227 228 229 231 232 233 234 235 236 236 237 238 239 240 241 241 242 242 243 244 246 247 248 250 252 253 254 256 257 258 259 260 262 264 266 268 269 269 270 270 271 273 274 275 276 278 281 283 285 286 288 289 291 292 293 295 296 297 296 296 295 295 294 294 293 294 295 294 292 291 289 286
221 218 216 216 219 223 225 225 225 225 226 226 226 227 227 228 229 230 232 233 234 235 236 236 237 238 239 240 241 242 243 244 245 246 246 247 248 249 250 252 253 255 257 258 260 262 263 264 265 265 266 267 269 270 271 273 275 276 278 281 283 285 287 289 290 291 292 293 294 295 296 296 296 296 296 296 296 296 297 298 299 298 298 297 296 293
219 216 215 215 217 221 222 222 224 227 228 227 227 227 228 229 230 230 232 233 234 235 236 237 237 238 239 240 241 242 244 245 246 246 247 247 248 249 250 252 254 256 258 259 261 263 264 264 265 264 263 264 267 269 271 274 276 278 281 283 285 287 289 290 291 292 293 293 293 294 295 296 296 297 297 298 298 298 299 299 299 298 298 297 297 295
217 215 214 214 216 219 220 218 218 224 228 229 228 228 228 229 230 231 232 233 234 235 236 237 237 238 239 240 241 242 243 245 246 246 247 248 249 251 252 254 255 257 258 260 261 262 263 263 263 264 264 265 267 269 272 275 277 280 283 284 286 288 289 289 290 291 291 291 292 293 294 294 294 295 295 296 296 296 296 297 297 298 298 297 297 296
216 213 213 213 213 217 220 218 216 217 223 227 228 229 229 230 231 232 232 234 235 235 236 237 238 238 239 240 241 242 243 245 246 247 248 249 251 252 253 254 255 256 258 259 260 261 262 263 264 265 266 267 269 271 274 276 279 281 283 285 287 288 288 288 289 289 289 290 291 292 292 292 292 293 293 293 294 294 295 297 299 299 298 296 296 295
216 212 211 212 212 214 218 220 218 216 219 224 228 230 230 231 231 232 233 234 235 236 237 237 238 239 240 241 242 243 243 244 246 247 249 250 251 252 253 254 255 256 257 259 260 261 262 263 264 265 267 269 271 273 276 278 280 282 284 285 285 285 286 287 287 287 287 289 290 290 291 292 292 292 292 292 292 293 295 297 299 299 298 296 294 293
215 212 210 209 211 213 215 217 218 218 219 222 227 230 232 232 232 233 235 235 235 236 237 238 239 239 240 241 243 244 244 245 246 247 249 250 251 252 253 254 255 256 257 258 260 261 263 264 265 266 268 269 272 274 277 279 282 283 284 285 284 284 285 286 286 286 287 288 289 289 290 291 291 291 291 290 291 292 294 297 298 298 297 295 293 291
212 212 210 207 208 211 212 213 214 215 215 218 222 226 231 233 233 233 235 237 237 237 237 238 239 240 241 242 244 245 245 245 246 247 248 250 250 251 252 253 254 256 257 258 260 262 263 264 265 267 269 271 273 276 278 280 282 283 284 284 284 285 285 285 285 285 286 287 287 288 290 291 291 291 291 291 292 294 296 298 299 299 298 297 294 293
Height
10969 10969 10968 10968 10970 10971 10972 10972 10973 10974 10974 10974 10974 10974 10974 10973 10973 10973 10973 10973 10973 10974 10975 10976 10976 10977 10978 10978 10979 10979 10979 10980 10981 10981 10981 10982 10982 10982 10982 10982 10982 10982 10982 10982 10983 10983 10984 10984 10984 10985 10984 10984 10984 10984 10984 10984 10984 10984 10984 10983 10983 10983 10983 10982 10982 10981 10981 10980 10980 10979 10978 10978 10977 10976 10974 10973 10972 10971 10970 10969 10967 10965 10964 10962 10961 10959
10967 10965 10963 10965 10967 10968 10969 10970 10971 10972 10972 10972 10972 10973 10973 10973 10973 10973 10974 10974 10974 10974 10974 10975 10976 10977 10978 10978 10979 10979 10979 10980 10981 10981 10982 10982 10982 10982 10982 10982 10983 10983 10983 10983 10983 10984 10984 10984 10985 10985 10985 10984 10984 10984 10984 10984 10983 10983 10983 10983 10983 10983 10982 10982 10981 10981 10980 10980 10979 10978 10978 10977 10976 10974 10973 10972 10971 10970 10968 10967 10965 10963 10961 10960 10959 10957
10962 10959 10958 10963 10965 10966 10967 10967 10968 10969 10970 10970 10970 10971 10971 10972 10972 10973 10973 10974 10974 10975 10975 10975 10976 10976 10977 10978 10979 10979 10979 10980 10980 10981 10982 10982 10982 10982 10982 10982 10983 10983 10983 10983 10983 10984 10984 10984 10985 10985 10985 10984 10984 10984 10983 10983 10983 10983 10983 10982 10982 10982 10981 10981 10980 10980 10979 10979 10978 10977 10976 10975 10974 10972 10971 10970 10969 10968 10966 10965 10963 10961 10960 10958 10956 10955
10957 10953 10953 10960 10963 10963 10963 10963 10965 10966 10967 10968 10968 10969 10970 10970 10971 10972 10972 10973 10973 10974 10975 10975 10976 10976 10977 10977 10978 10979 10979 10979 10980 10980 10980 10981 10981 10981 10981 10981 10982 10982 10982 10982 10983 10983 10983 10984 10984 10984 10984 10984 10984 10983 10983 10982 10982 10982 10982 10981 10981 10981 10980 10980 10979 10979 10978 10977 10976 10975 10974 10973 10972 10971 10970 10969 10967 10966 10964 10962 10960 10958 10957 10955 10953 10952
10951 10946 10948 10956 10960 10960 10960 10961 10962 10962 10964 10965 10966 10967 10968 10968 10970 10970 10971 10972 10972 10973 10973 10974 10975 10976 10976 10977 10977 10977 10978 10978 10978 10979 10979 10980 10980 10980 10980 10980 10981 10981 10981 10981 10982 10982 10982 10983 10983 10983 10983 10983 10983 10983 10982 10982 10982 10981 10981 10981 10980 10980 10979 10979 10978 10978 10977 10976 10975 10974 10973 10972 10971 10969 10968 10966 10965 10963 10961 10959 10957 10955 10954 10952 10950 10949
10945 10941 10944 10952 10955 10957 10958 10957 10957 10958 10960 10961 10962 10964 10965 10966 10968 10968 10968 10969 10970 10971 10972 10973 10974 10975 10975 10976 10976 10976 10976 10976 10977 10977 10978 10978 10978 10979 10979 10979 10979 10980 10980 10980 10981 10981 10981 10981 10982 10982 10982 10982 10982 10982 10982 10981 10981 10981 10980 10979 10979 10978 10978 10978 10977 10976 10976 10975 10974 10973 10972 10970 10969 10967 10965 10964 10962 10961 10959 10957 10955 10953 10951 10949 10947 10946
10939 10936 10939 10947 10951 10953 10954 10954 10953 10953 10955 10956 10957 10960 10962 10964 10966 10966 10966 10967 10968 10970 10970 10971 10972 10973 10974 10974 10975 10975 10975 10975 10975 10975 10976 10976 10976 10977 10977 10978 10978 10978 10979 10979 10979 10979 10980 10980 10980 10980 10981 10981 10981 10981 10980 10980 10980 10979 10979 10978 10978 10977 10977 10977 10976 10975 10974 10973 10973 10971 10970 10969 10967 10965 10964 10962 10960 10959 10957 10955 10954 10951 10949 10947 10944 10942
10934 10930 10933 10942 10946 10948 10951 10951 10949 10948 10949 10950 10951 10956 10959 10961 10963 10963 10964 10965 10966 10968 10968 10969 10970 10971 10972 10972 10973 10973 10973 10973 10973 10974 10974 10974 10974 10975 10975 10976 10976 10977 10977 10978 10978 10978 10978 10978 10979 10979 10979 10979 10979 10979 10979 10979 10978 10978 10978 10977 10976 10976 10975 10975 10974 10973 10972 10971 10970 10969 10967 10966 10965 10963 10962 10960 10958 10957 10955 10953 10951 10949 10946 10944 10942 10940
10926 10924 10926 10934 10940 10943 10946 10945 10943 10943 10943 10943 10946 10953 10956 10958 10960 10961 10962 10963 10964 10966 10966 10966 10968 10969 10970 10970 10971 10971 10971 10971 10972 10972 10972 10973 10973 10973 10973 10973 10974 10975 10975 10976 10976 10976 10977 10977 10977 10977 10977 10977 10977 10977 10977 10977 10977 10976 10976 10975 10975 10974 10973 10973 10972 10971 10970 10969 10967 10966 10964 10963 10962 10960 10958 10957 10955 10953 10952 10950 10948 10946 10944 10942 10940 10938
10919 10918 10918 10926 10934 10938 10939 10938 10938 10940 10938 10937 10942 10948 10951 10954 10956 10958 10959 10960 10962 10964 10963 10963 10965 10967 10968 10968 10968 10969 10969 10969 10970 10970 10970 10971 10971 10971 10971 10972 10972 10973 10973 10973 10974 10974 10975 10975 10975 10975 10975 10975 10975 10975 10975 10975 10974 10974 10974 10973 10973 10972 10971 10970 10970 10969 10968 10966 10965 10963 10962 10960 10959 10957 10955 10953 10952 10950 10948 10947 10945 10943 10941 10939 10937 10935
10913 10913 10913 10920 10929 10932 10931 10932 10934 10936 10934 10933 10938 10944 10947 10950 10952 10954 10956 10957 10960 10961 10959 10959 10962 10964 10965 10965 10965 10966 10967 10967 10967 10967 10967 10968 10969 10969 10970 10970 10971 10971 10972 10972 10972 10972 10972 10973 10973 10973 10973 10973 10973 10973 10973 10972 10972 10971 10971 10971 10970 10970 10969 10968 10967 10966 10965 10964 10963 10961 10960 10958 10956 10954 10952 10951 10949 10947 10946 10944 10943 10941 10939 10937 10935 10933
10907 10908 10909 10914 10921 10924 10926 10927 10929 10931 10932 10931 10935 10940 10943 10945 10948 10950 10952 10954 10957 10956 10953 10955 10959 10960 10960 10961 10962 10965 10965 10964 10964 10965 10965 10965 10966 10967 10968 10968 10969 10970 10970 10970 10970 10970 10970 10970 10971 10971 10971 10971 10971 10970 10970 10970 10969 10969 10968 10968 10968 10967 10967 10966 10965 10964 10963 10962 10960 10959 10957 10956 10954 10952 10950 10948 10947 10945 10944 10942 10940 10938 10936 10934 10932 10930
10901 10903 10903 10906 10912 10917 10920 10922 10923 10927 10929 10928 10931 10935 10938 10941 10944 10946 10948 10950 10952 10949 10947 10952 10956 10954 10956 10958 10960 10961 10961 10962 10962 10962 10963 10963 10964 10965 10965 10966 10966 10967 10968 10968 10969 10969 10969 10968 10968 10968 10969 10969 10969 10968 10967 10967 10967 10966 10966 10965 10965 10965 10964 10963 10962 10961 10960 10959 10958 10957 10955 10954 10952 10950 10948 10946 10944 10943 10941 10939 10937 10935 10933 10931 10929 10927
10893 10894 10895 10899 10904 10910 10914 10916 10919 10923 10924 10924 10926 10930 10933 10937 10940 10942 10944 10944 10945 10942 10940 10947 10952 10950 10952 10956 10956 10958 10959 10959 10959 10959 10960 10961 10962 10962 10963 10963 10964 10964 10965 10966 10966 10967 10967 10967 10966 10966 10966 10966 10966 10966 10965 10965 10964 10964 10963 10962 10962 10962 10961 10960 10959 10958 10957 10956 10955 10954 10952 10951 10950 10949 10947 10945 10943 10941 10939 10936 10934 10932 10930 10928 10926 10924
10884 10886 10890 10893 10897 10903 10907 10910 10912 10914 10915 10916 10919 10922 10926 10931 10935 10937 10938 10938 10939 10937 10934 10941 10948 10946 10948 10952 10953 10955 10955 10954 10955 10956 10957 10958 10959 10960 10960 10961 10962 10962 10963 10963 10963 10964 10964 10965 10965 10964 10964 10963 10964 10963 10963 10962 10962 10961 10961 10960 10959 10958 10958 10957 10956 10955 10954 10953 10952 10951 10949 10948 10947 10945 10944 10943 10941 10938 10936 10934 10932 10929 10927 10925 10923 10920
10877 10882 10885 10885 10887 10892 10896 10901 10902 10903 10906 10910 10912 10916 10922 10928 10930 10930 10932 10933 10934 10933 10932 10937 10941 10940 10944 10948 10949 10951 10950 10950 10951 10952 10953 10954 10955 10957 10957 10958 10959 10959 10959 10960 10960 10960 10961 10961 10962 10961 10961 10961 10961 10960 10960 10959 10959 10958 10958 10957 10956 10955 10955 10954 10953 10952 10951 10949 10948 10947 10946 10944 10943 10942 10940 10939 10937 10935 10933 10930 10928 10927 10925 10922 10920 10917
10868 10874 10876 10874 10878 10882 10885 10890 10892 10894 10899 10902 10906 10912 10919 10922 10922 10923 10927 10929 10930 10931 10931 10934 10935 10934 10939 10943 10944 10945 10945 10946 10948 10948 10949 10950 10951 10952 10954 10955 10955 10956 10956 10956 10956 10957 10957 10957 10958 10958 10958 10958 10957 10957 10956 10956 10955 10955 10954 10953 10953 10952 10952 10951 10950 10948 10947 10946 10944 10943 10942 10940 10939 10937 10936 10935 10933 10931 10929 10926 10924 10922 10921 10919 10917 10914
10857 10862 10863 10864 10869 10872 10874 10879 10883 10886 10891 10895 10901 10908 10911 10911 10913 10917 10922 10925 10927 10930 10931 10931 10930 10929 10933 10937 10938 10939 10939 10941 10943 10944 10944 10945 10946 10948 10949 10951 10952 10952 10952 10953 10953 10953 10953 10953 10953 10953 10953 10953 10953 10953 10953 10952 10952 10951 10950 10950 10949 10949 10948 10947 10946 10945 10944 10942 10941 10939 10937 10936 10934 10933 10931 10929 10928 10926 10924 10922 10919 10917 10916 10914 10912 10910
10845 10851 10853 10855 10858 10860 10862 10867 10874 10881 10886 10890 10897 10900 10900 10903 10908 10912 10917 10921 10924 10927 10928 10928 10927 10926 10927 10929 10931 10933 10934 10936 10938 10939 10939 10940 10941 10943 10944 10946 10947 10947 10948 10948 10949 10949 10949 10948 10948 10948 10949 10949 10949 10949 10949 10948 10948 10947 10947 10946 10945 10945 10944 10943 10942 10941 10940 10939 10937 10935 10933 10932 10930 10928 10926 10924 10922 10920 10918 10915 10914 10912 10911 10909 10907 10905
10834 10840 10844 10845 10847 10849 10851 10856 10868 10878 10882 10886 10890 10892 10893 10897 10903 10907 10911 10916 10919 10921 10924 10924 10924 10925 10923 10920 10922 10927 10930 10931 10934 10935 10934 10935 10936 10937 10938 10940 10941 10942 10943 10944 10944 10945 10945 10944 10944 10944 10944 10944 10945 10944 10944 10944 10944 10943 10943 10943 10942 10941 10940 10940 10939 10937 10936 10934 10932 10931 10929 10928 10925 10923 10921 10919 10917 10914 10912 10910 10908 10906 10905 10903 10902 10899
10821 10829 10834 10835 10836 10839 10845 10855 10868 10874 10876 10879 10883 10885 10886 10891 10897 10901 10905 10911 10915 10917 10920 10921 10923 10924 10920 10915 10915 10920 10924 10926 10929 10930 10929 10929 10931 10932 10933 10934 10936 10937 10938 10939 10940 10940 10941 10940 10940 10940 10940 10940 10940 10939 10939 10939 10939 10939 10939 10938 10938 10937 10937 10936 10935 10933 10932 10930 10928 10926 10925 10923 10921 10918 10916 10914 10912 10909 10907 10904 10902 10900 10898 10897 10896 10894
10812 10820 10826 10825 10825 10833 10844 10854 10860 10862 10865 10869 10872 10875 10878 10882 10888 10892 10897 10905 10909 10912 10916 10917 10920 10920 10916 10911 10911 10914 10917 10921 10923 10924 10924 10923 10924 10926 10928 10929 10931 10932 10933 10934 10935 10936 10936 10935 10936 10936 10936 10936 10936 10935 10934 10934 10934 10934 10934 10934 10934 10933 10933 10931 10930 10929 10928 10926 10923 10922 10920 10918 10916 10914 10911 10909 10907 10904 10901 10899 10896 10894 10893 10891 10890 10888
10800 10807 10812 10814 10819 10830 10840 10843 10844 10847 10852 10855 10859 10865 10869 10873 10878 10885 10892 10899 10902 10906 10909 10911 10914 10916 10912 10908 10907 10908 10910 10914 10916 10918 10919 10918 10919 10920 10923 10925 10926 10927 10928 10929 10930 10931 10931 10931 10931 10931 10932 10932 10931 10930 10930 10929 10929 10930 10930 10930 10930 10929 10929 10927 10926 10925 10923 10921 10919 10917 10916 10914 10911 10909 10906 10903 10901 10899 10897 10894 10891 10889 10888 10887 10885 10883
10785 10792 10801 10807 10814 10822 10826 10827 10829 10834 10837 10843 10853 10861 10866 10870 10875 10881 10888 10891 10894 10899 10903 10905 10910 10912 10908 10904 10903 10903 10905 10908 10911 10912 10913 10914 10915 10915 10917 10920 10920 10922 10923 10924 10925 10926 10926 10926 10926 10926 10927 10927 10926 10925 10925 10925 10925 10925 10925 10925 10926 10926 10925 10923 10922 10920 10918 10916 10915 10913 10912 10910 10909 10905 10899 10896 10895 10894 10892 10890 10887 10885 10884 10881 10879 10878
10771 10782 10792 10798 10803 10808 10810 10813 10820 10827 10833 10841 10852 10859 10864 10868 10870 10873 10879 10883 10887 10893 10897 10900 10906 10909 10905 10900 10899 10900 10900 10902 10905 10907 10908 10909 10910 10911 10912 10914 10915 10917 10919 10919 10920 10921 10921 10921 10922 10922 10922 10922 10921 10921 10920 10920 10920 10920 10920 10921 10921 10921 10920 10919 10917 10915 10913 10912 10910 10909 10908 10907 10906 10902 10896 10893 10892 10891 10889 10886 10883 10881 10879 10875 10873 10873
10759 10772 10780 10786 10793 10799 10804 10811 10821 10829 10833 10839 10846 10852 10858 10860 10861 10865 10869 10875 10883 10888 10891 10896 10903 10904 10900 10896 10895 10896 10896 10897 10899 10901 10902 10904 10905 10907 10907 10908 10910 10912 10914 10915 10915 10916 10916 10916 10917 10917 10916 10916 10916 10915 10915 10915 10915 10915 10915 10915 10915 10915 10914 10913 10912 10910 10908 10907 10906 10905 10905 10904 10902 10897 10893 10892 10891 10889 10885 10882 10878 10875 10872 10868 10866 10866
10749 10761 10769 10777 10786 10794 10801 10807 10813 10817 10820 10826 10834 10840 10845 10849 10852 10854 10857 10867 10879 10881 10883 10890 10895 10895 10893 10891 10891 10891 10891 10892 10894 10895 10896 10898 10901 10902 10903 10904 10906 10908 10909 10909 10910 10910 10911 10912 10913 10912 10912 10911 10910 10909 10909 10909 10909 10908 10909 10909 10909 10909 10909 10908 10907 10904 10903 10902 10901 10901 10901 10899 10896 10894 10892 10890 10887 10883 10879 10875 10871 10869 10866 10863 10860 10858
10741 10751 10759 10768 10777 10786 10791 10794 10796 10799 10805 10812 10818 10824 10829 10835 10839 10841 10848 10862 10869 10869 10875 10884 10884 10884 10886 10885 10884 10885 10885 10885 10887 10888 10890 10893 10896 10897 10899 10901 10903 10903 10904 10904 10904 10905 10906 10907 10908 10907 10906 10906 10904 10904 10904 10903 10902 10903 10903 10903 10903 10903 10903 10902 10901 10899 10897 10896 10896 10897 10896 10894 10893 10893 10891 10887 10881 10876 10873 10868 10864 10862 10860 10858 10855 10853
10732 10740 10748 10756 10765 10774 10778 10779 10781 10786 10792 10799 10804 10810 10816 10822 10828 10833 10842 10852 10855 10858 10870 10874 10870 10874 10879 10877 10876 10878 10878 10878 10880 10882 10886 10889 10891 10893 10896 10897 10898 10899 10899 10899 10898 10899 10901 10902 10902 10901 10900 10899 10898 10898 10898 10896 10896 10896 10896 10896 10896 10896 10896 10896 10894 10893 10892 10890 10891 10892 10890 10889 10890 10891 10891 10889 10882 10873 10866 10862 10859 10856 10854 10853 10850 10847
10722 10730 10737 10745 10754 10763 10766 10766 10769 10774 10780 10786 10793 10799 10804 10811 10820 10827 10835 10841 10843 10851 10860 10860 10860 10868 10872 10870 10871 10871 10870 10872 10875 10878 10882 10885 10886 10888 10891 10893 10893 10894 10894 10894 10893 10894 10895 10897 10897 10895 10894 10893 10892 10891 10890 10889 10889 10889 10889 10889 10888 10888 10889 10889 10887 10886 10886 10885 10885 10885 10884 10884 10886 10888 10891 10892 10888 10877 10865 10858 10854 10850 10848 10848 10846 10841
10713 10719 10725 10734 10744 10752 10756 10757 10759 10764 10770 10776 10783 10790 10795 10801 10811 10819 10826 10831 10836 10844 10851 10852 10856 10865 10867 10865 10865 10864 10864 10868 10870 10873 10877 10879 10880 10882 10885 10887 10888 10888 10888 10888 10888 10889 10890 10891 10891 10890 10888 10886 10885 10883 10882 10881 10881 10880 10880 10881 10881 10881 10881 10881 10880 10880 10879 10878 10879 10878 10877 10877 10879 10883 10886 10888 10887 10880 10869 10856 10846 10842 10842 10843 10841 10837
10702 10707 10714 10722 10732 10742 10747 10748 10751 10756 10760 10765 10773 10781 10787 10793 10802 10812 10819 10825 10830 10838 10842 10845 10854 10862 10861 10857 10857 10857 10859 10862 10865 10868 10870 10872 10874 10876 10878 10880 10882 10882 10881 10881 10882 10883 10884 10885 10885 10884 10882 10880 10878 10876 10875 10874 10873 10870 10869 10871 10871 10872 10872 10873 10872 10872 10871 10872 10872 10871 10871 10871 10873 10876 10879 10881 10879 10873 10862 10850 10840 10836 10837 10837 10836 10833
10691 10697 10704 10711 10722 10734 10737 10738 10743 10744 10746 10754 10766 10776 10783 10789 10796 10803 10810 10817 10823 10828 10832 10840 10851 10856 10851 10847 10850 10852 10853 10856 10859 10861 10863 10865 10867 10869 10871 10873 10874 10874 10874 10874 10875 10876 10878 10879 10879 10879 10877 10873 10871 10870 10870 10868 10866 10862 10861 10861 10861 10861 10862 10863 10864 10864 10864 10865 10866 10866 10866 10866 10867 10868 10869 10870 10868 10861 10855 10849 10842 10837 10835 10833 10830 10829
10680 10686 10694 10702 10715 10725 10726 10727 10731 10731 10735 10752 10767 10775 10778 10782 10787 10793 10801 10809 10814 10818 10825 10835 10844 10846 10843 10842 10844 10845 10846 10849 10852 10855 10857 10859 10860 10863 10865 10866 10867 10867 10867 10866 10867 10870 10872 10873 10873 10873 10870 10867 10865 10865 10865 10862 10859 10857 10857 10856 10854 10854 10854 10855 10855 10857 10858 10859 10859 10861 10861 10861 10860 10860 10859 10858 10857 10853 10850 10846 10841 10836 10833 10829 10825 10823
10669 10676 10684 10694 10706 10714 10714 10716 10720 10725 10737 10755 10766 10768 10769 10772 10777 10782 10789 10797 10803 10809 10818 10827 10834 10838 10838 10837 10837 10838 10840 10843 10846 10849 10852 10853 10854 10857 10858 10858 10858 10859 10859 10858 10860 10864 10866 10866 10866 10865 10863 10861 10861 10860 10858 10855 10854 10853 10853 10851 10850 10849 10848 10848 10848 10850 10851 10851 10852 10853 10854 10854 10853 10851 10849 10847 10846 10845 10843 10840 10836 10832 10828 10824 10819 10815
10660 10667 10676 10686 10696 10703 10706 10708 10712 10722 10737 10749 10754 10757 10759 10762 10767 10773 10780 10789 10796 10803 10811 10819 10825 10829 10831 10831 10830 10830 10832 10835 10839 10843 10845 10847 10849 10850 10850 10849 10850 10851 10850 10852 10855 10858 10859 10858 10858 10858 10857 10856 10855 10852 10850 10849 10849 10848 10847 10846 10845 10844 10843 10843 10843 10843 10843 10843 10844 10845 10846 10846 10845 10843 10840 10838 10836 10836 10834 10833 10830 10825 10821 10818 10814 10809
10653 10659 10668 10677 10686 10693 10698 10701 10706 10717 10730 10738 10744 10748 10750 10754 10761 10766 10773 10782 10789 10795 10802 10809 10814 10819 10823 10824 10822 10822 10824 10828 10832 10836 10838 10841 10842 10842 10842 10841 10842 10843 10843 10846 10849 10850 10850 10850 10851 10851 10851 10849 10847 10844 10843 10843 10843 10842 10841 10840 10839 10838 10838 10837 10837 10836 10836 10835 10835 10837 10838 10838 10837 10835 10832 10830 10827 10826 10825 10824 10822 10817 10814 10813 10810 10804
10646 10652 10660 10668 10676 10683 10689 10693 10698 10709 10723 10731 10736 10741 10744 10747 10753 10758 10763 10771 10779 10787 10793 10798 10804 10809 10813 10814 10814 10815 10818 10821 10825 10829 10831 10834 10835 10834 10833 10833 10834 10836 10837 10840 10842 10843 10842 10842 10843 10843 10843 10841 10839 10836 10835 10836 10836 10835 10834 10833 10832 10831 10830 10830 10830 10829 10828 10827 10827 10828 10829 10829 10828 10826 10823 10821 10819 10817 10815 10814 10812 10809 10808 10808 10803 10796
10638 10644 10652 10658 10666 10674 10680 10686 10691 10700 10713 10722 10727 10732 10736 10740 10744 10748 10752 10760 10770 10778 10783 10787 10794 10799 10803 10805 10806 10808 10810 10814 10818 10821 10823 10826 10826 10825 10826 10826 10827 10828 10830 10833 10835 10834 10834 10834 10834 10834 10834 10833 10831 10828 10827 10827 10827 10827 10827 10826 10825 10823 10823 10823 10823 10822 10820 10818 10818 10820 10821 10821 10819 10817 10814 10812 10810 10808 10806 10805 10802 10800 10798 10796 10791 10785
10634 10639 10645 10650 10658 10665 10672 10679 10684 10692 10704 10713 10719 10724 10728 10731 10734 10737 10742 10753 10764 10770 10773 10778 10785 10790 10793 10796 10798 10800 10803 10807 10810 10812 10814 10816 10817 10817 10818 10819 10819 10821 10822 10824 10825 10825 10826 10826 10825 10826 10825 10824 10822 10821 10820 10820 10820 10819 10819 10818 10818 10817 10816 10816 10816 10814 10812 10810 10810 10811 10812 10811 10810 10807 10805 10803 10801 10799 10797 10796 10794 10790 10786 10783 10780 10777
10629 10633 10638 10643 10650 10656 10664 10673 10679 10686 10697 10706 10711 10715 10718 10720 10725 10730 10739 10749 10757 10760 10763 10769 10776 10781 10785 10788 10790 10792 10794 10798 10800 10803 10805 10806 10806 10808 10810 10811 10811 10812 10813 10815 10816 10817 10818 10818 10817 10817 10816 10815 10814 10813 10813 10813 10812 10812 10812 10811 10811 10811 10810 10809 10808 10807 10805 10803 10802 10801 10801 10800 10799 10798 10795 10793 10791 10789 10787 10787 10786 10783 10778 10775 10773 10770
10623 10626 10632 10637 10642 10648 10657 10666 10673 10680 10689 10697 10702 10706 10709 10714 10721 10727 10734 10741 10745 10750 10755 10761 10767 10772 10776 10778 10781 10784 10786 10789 10791 10793 10795 10797 10798 10800 10801 10802 10803 10804 10804 10806 10807 10808 10808 10809 10809 10809 10809 10807 10807 10806 10806 10805 10804 10804 10805 10804 10804 10804 10804 10802 10801 10799 10797 10795 10794 10792 10791 10790 10789 10787 10784 10782 10780 10779 10778 10777 10777 10775 10771 10767 10765 10762
10616 10620 10626 10631 10636 10642 10650 10659 10667 10674 10680 10688 10694 10698 10703 10710 10717 10721 10725 10730 10735 10741 10746 10752 10758 10763 10766 10769 10773 10777 10779 10781 10782 10783 10786 10789 10791 10792 10792 10793 10794 10794 10795 10796 10798 10799 10800 10801 10802 10802 10802 10801 10800 10799 10798 10797 10796 10797 10797 10797 10797 10797 10796 10795 10793 10791 10789 10787 10785 10784 10783 10782 10780 10776 10774 10772 10770 10768 10767 10766 10766 10764 10761 10758 10755 10752
10611 10615 10621 10627 10631 10636 10643 10653 10662 10669 10674 10680 10686 10690 10696 10703 10708 10713 10717 10721 10726 10733 10739 10744 10748 10753 10757 10761 10765 10769 10771 10772 10772 10775 10778 10780 10782 10783 10784 10784 10784 10784 10785 10787 10789 10792 10794 10796 10796 10796 10795 10793 10792 10791 10790 10789 10789 10790 10790 10790 10790 10790 10788 10787 10785 10782 10780 10777 10776 10775 10775 10773 10770 10767 10765 10763 10761 10759 10756 10754 10753 10751 10748 10746 10743 10741
10607 10611 10616 10622 10626 10631 10639 10648 10658 10663 10667 10673 10678 10683 10690 10695 10700 10706 10710 10713 10719 10725 10731 10735 10740 10744 10749 10754 10758 10761 10762 10763 10765 10768 10770 10772 10773 10773 10774 10775 10776 10777 10778 10780 10782 10784 10788 10789 10790 10790 10788 10785 10783 10783 10782 10781 10781 10782 10784 10784 10782 10781 10780 10778 10775 10772 10770 10768 10767 10766 10765 10763 10760 10758 10756 10754 10751 10748 10746 10743 10741 10738 10736 10733 10731 10729
10601 10606 10611 10617 10622 10628 10636 10645 10652 10656 10660 10665 10671 10677 10683 10688 10692 10698 10702 10706 10712 10718 10723 10728 10733 10737 10741 10745 10750 10752 10753 10755 10757 10760 10762 10763 10764 10765 10766 10768 10770 10771 10773 10773 10775 10777 10780 10781 10781 10781 10780 10778 10776 10774 10774 10775 10775 10776 10776 10775 10774 10773 10772 10768 10765 10763 10762 10760 10759 10757 10755 10753 10750 10748 10746 10743 10741 10739 10736 10734 10731 10729 10727 10724 10721 10719
10596 10602 10607 10613 10620 10625 10631 10639 10646 10650 10654 10658 10664 10669 10675 10680 10684 10690 10695 10699 10704 10710 10715 10720 10726 10730 10733 10737 10741 10743 10744 10747 10749 10752 10754 10755 10756 10758 10761 10762 10763 10765 10765 10765 10766 10769 10770 10770 10770 10770 10770 10770 10768 10767 10767 10769 10769 10769 10768 10766 10765 10765 10763 10759 10756 10756 10754 10752 10750 10749 10746 10743 10741 10738 10737 10735 10733 10730 10728 10725 10723 10721 10718 10715 10712 10710
10593 10599 10604 10610 10616 10621 10626 10633 10641 10646 10650 10653 10657 10662 10668 10672 10677 10682 10688 10692 10697 10702 10707 10712 10718 10723 10726 10729 10732 10734 10737 10739 10741 10743 10745 10747 10749 10751 10753 10754 10756 10756 10756 10756 10757 10759 10759 10760 10760 10761 10761 10760 10759 10759 10760 10761 10762 10762 10760 10758 10757 10756 10753 10750 10749 10747 10745 10743 10742 10740 10737 10735 10732 10730 10728 10726 10724 10721 10719 10716 10714 10712 10709 10706 10703 10701
10589 10595 10600 10606 10612 10618 10624 10630 10636 10642 10646 10649 10653 10657 10661 10665 10670 10675 10680 10684 10689 10694 10699 10705 10710 10715 10718 10721 10724 10726 10729 10731 10732 10734 10736 10739 10741 10743 10744 10746 10747 10747 10747 10747 10748 10748 10749 10750 10750 10751 10751 10751 10751 10751 10752 10753 10754 10754 10753 10752 10750 10746 10744 10742 10741 10739 10736 10735 10733 10730 10728 10725 10723 10721 10718 10716 10714 10711 10709 10707 10704 10702 10700 10697 10694 10691
10583 10590 10597 10603 10610 10616 10622 10627 10632 10638 10644 10647 10650 10653 10656 10660 10665 10669 10672 10676 10681 10687 10692 10697 10702 10706 10710 10714 10716 10718 10720 10723 10724 10726 10728 10730 10732 10733 10735 10736 10736 10737 10737 10738 10738 10739 10740 10740 10741 10742 10743 10743 10744 10745 10746 10746 10746 10745 10745 10744 10741 10738 10736 10735 10732 10730 10728 10726 10723 10721 10719 10716 10714 10711 10709 10706 10704 10701 10699 10697 10694 10692 10690 10687 10684 10681
10580 10586 10593 10599 10605 10611 10617 10622 10628 10634 10639 10644 10648 10651 10654 10658 10662 10665 10668 10671 10675 10680 10685 10689 10694 10698 10703 10707 10708 10710 10712 10714 10716 10718 10719 10721 10723 10724 10725 10725 10726 10727 10728 10729 10730 10730 10730 10731 10732 10733 10735 10736 10737 10738 10738 10739 10738 10736 10736 10735 10733 10730 10728 10726 10723 10720 10719 10717 10714 10712 10709 10706 10704 10701 10698 10696 10693 10691 10688 10686 10684 10681 10679 10676 10673 10670